owner,sensor,date,latitude,longitude,vertical_datum,sea_water_practical_salinity,qcFlag 
LUMCON,ioos:station:LUMCON:102:1,2017-01-01T00:00:00Z,29.1870,-90.6093,2.56,26.36,1111122 
LUMCON,ioos:station:LUMCON:102:1,2017-01-01T00:15:00Z,29.1870,-90.6093,2.58,26.41,1111122 
LUMCON,ioos:station:LUMCON:102:1,2017-01-01T00:30:00Z,29.1870,-90.6093,2.6,26.55,1111122 
LUMCON,ioos:station:LUMCON:102:1,2017-01-01T00:45:00Z,29.1870,-90.6093,2.6,26.56,1111122 
LUMCON,ioos:station:LUMCON:102:1,2017-01-01T01:00:00Z,29.1870,-90.6093,2.6,26.59,1111122 
LUMCON,ioos:station:LUMCON:102:1,2017-01-01T01:15:00Z,29.1870,-90.6093,2.61,26.75,1111122 
LUMCON,ioos:station:LUMCON:102:1,2017-01-01T01:30:00Z,29.1870,-90.6093,2.62,26.81,1111122 
LUMCON,ioos:station:LUMCON:102:1,2017-01-01T01:45:00Z,29.1870,-90.6093,2.62,26.82,1111122 
LUMCON,ioos:station:LUMCON:102:1,2017-01-01T02:00:00Z,29.1870,-90.6093,2.62,26.93,1111122 
LUMCON,ioos:station:LUMCON:102:1,2017-01-01T02:15:00Z,29.1870,-90.6093,2.64,27.0,1111122 
LUMCON,ioos:station:LUMCON:102:1,2017-01-01T02:30:00Z,29.1870,-90.6093,2.62,27.04,1111122 
LUMCON,ioos:station:LUMCON:102:1,2017-01-01T02:45:00Z,29.1870,-90.6093,2.62,27.07,1111122 
LUMCON,ioos:station:LUMCON:102:1,2017-01-01T03:00:00Z,29.1870,-90.6093,2.6,27.14,1111122 
LUMCON,ioos:station:LUMCON:102:1,2017-01-01T03:15:00Z,29.1870,-90.6093,2.62,27.17,1111122 
LUMCON,ioos:station:LUMCON:102:1,2017-01-01T03:30:00Z,29.1870,-90.6093,2.62,27.14,1111122 
LUMCON,ioos:station:LUMCON:102:1,2017-01-01T03:45:00Z,29.1870,-90.6093,2.63,27.08,1111122 
LUMCON,ioos:station:LUMCON:102:1,2017-01-01T04:00:00Z,29.1870,-90.6093,2.64,26.96,1111122 
LUMCON,ioos:station:LUMCON:102:1,2017-01-01T04:15:00Z,29.1870,-90.6093,2.66,26.99,1111122 
LUMCON,ioos:station:LUMCON:102:1,2017-01-01T04:30:00Z,29.1870,-90.6093,2.66,26.97,1111122 
LUMCON,ioos:station:LUMCON:102:1,2017-01-01T04:45:00Z,29.1870,-90.6093,2.63,26.97,1111122 
LUMCON,ioos:station:LUMCON:102:1,2017-01-01T05:00:00Z,29.1870,-90.6093,2.62,26.95,1111122 
LUMCON,ioos:station:LUMCON:102:1,2017-01-01T05:15:00Z,29.1870,-90.6093,2.62,26.96,1111122 
LUMCON,ioos:station:LUMCON:102:1,2017-01-01T05:30:00Z,29.1870,-90.6093,2.59,26.96,1111122 
LUMCON,ioos:station:LUMCON:102:1,2017-01-01T05:45:00Z,29.1870,-90.6093,2.6,26.99,1111122 
LUMCON,ioos:station:LUMCON:102:1,2017-01-01T06:00:00Z,29.1870,-90.6093,2.6,26.94,1111122 
LUMCON,ioos:station:LUMCON:102:1,2017-01-01T06:15:00Z,29.1870,-90.6093,2.59,26.93,1111122 
LUMCON,ioos:station:LUMCON:102:1,2017-01-01T06:30:00Z,29.1870,-90.6093,2.57,27.0,1111122 
LUMCON,ioos:station:LUMCON:102:1,2017-01-01T06:45:00Z,29.1870,-90.6093,2.57,26.96,1111122 
LUMCON,ioos:station:LUMCON:102:1,2017-01-01T07:00:00Z,29.1870,-90.6093,2.55,26.96,1111122 
LUMCON,ioos:station:LUMCON:102:1,2017-01-01T07:15:00Z,29.1870,-90.6093,2.53,26.93,1111122 
LUMCON,ioos:station:LUMCON:102:1,2017-01-01T07:30:00Z,29.1870,-90.6093,2.51,26.68,1111122 
LUMCON,ioos:station:LUMCON:102:1,2017-01-01T07:45:00Z,29.1870,-90.6093,2.51,26.22,1111122 
LUMCON,ioos:station:LUMCON:102:1,2017-01-01T08:00:00Z,29.1870,-90.6093,2.5,25.88,1111122 
LUMCON,ioos:station:LUMCON:102:1,2017-01-01T08:15:00Z,29.1870,-90.6093,2.52,25.78,1111122 
LUMCON,ioos:station:LUMCON:102:1,2017-01-01T08:30:00Z,29.1870,-90.6093,2.49,25.79,1111122 
LUMCON,ioos:station:LUMCON:102:1,2017-01-01T08:45:00Z,29.1870,-90.6093,2.48,25.72,1111122 
LUMCON,ioos:station:LUMCON:102:1,2017-01-01T09:00:00Z,29.1870,-90.6093,2.46,25.71,1111122 
LUMCON,ioos:station:LUMCON:102:1,2017-01-01T09:15:00Z,29.1870,-90.6093,2.45,25.57,1111122 
LUMCON,ioos:station:LUMCON:102:1,2017-01-01T09:30:00Z,29.1870,-90.6093,2.41,25.17,1111122 
LUMCON,ioos:station:LUMCON:102:1,2017-01-01T09:45:00Z,29.1870,-90.6093,2.39,25.04,1111122 
LUMCON,ioos:station:LUMCON:102:1,2017-01-01T10:00:00Z,29.1870,-90.6093,2.39,24.82,1111122 
LUMCON,ioos:station:LUMCON:102:1,2017-01-01T10:15:00Z,29.1870,-90.6093,2.37,24.67,1111122 
LUMCON,ioos:station:LUMCON:102:1,2017-01-01T10:30:00Z,29.1870,-90.6093,2.35,24.56,1111122 
LUMCON,ioos:station:LUMCON:102:1,2017-01-01T10:45:00Z,29.1870,-90.6093,2.32,24.54,1111122 
LUMCON,ioos:station:LUMCON:102:1,2017-01-01T11:00:00Z,29.1870,-90.6093,2.32,24.58,1111122 
LUMCON,ioos:station:LUMCON:102:1,2017-01-01T11:15:00Z,29.1870,-90.6093,2.3,24.72,1111122 
LUMCON,ioos:station:LUMCON:102:1,2017-01-01T11:30:00Z,29.1870,-90.6093,2.29,24.85,1111122 
LUMCON,ioos:station:LUMCON:102:1,2017-01-01T11:45:00Z,29.1870,-90.6093,2.28,25.01,1111122 
LUMCON,ioos:station:LUMCON:102:1,2017-01-01T12:00:00Z,29.1870,-90.6093,2.28,25.11,1111122 
LUMCON,ioos:station:LUMCON:102:1,2017-01-01T12:15:00Z,29.1870,-90.6093,2.28,25.17,1111122 
LUMCON,ioos:station:LUMCON:102:1,2017-01-01T12:30:00Z,29.1870,-90.6093,2.29,25.27,1111122 
LUMCON,ioos:station:LUMCON:102:1,2017-01-01T12:45:00Z,29.1870,-90.6093,2.28,25.29,1111122 
LUMCON,ioos:station:LUMCON:102:1,2017-01-01T13:00:00Z,29.1870,-90.6093,2.27,25.26,1111122 
LUMCON,ioos:station:LUMCON:102:1,2017-01-01T13:15:00Z,29.1870,-90.6093,2.27,25.21,1111122 
LUMCON,ioos:station:LUMCON:102:1,2017-01-01T13:30:00Z,29.1870,-90.6093,2.25,25.16,1111122 
LUMCON,ioos:station:LUMCON:102:1,2017-01-01T13:45:00Z,29.1870,-90.6093,2.26,25.06,1111122 
LUMCON,ioos:station:LUMCON:102:1,2017-01-01T14:00:00Z,29.1870,-90.6093,2.26,24.96,1111122 
LUMCON,ioos:station:LUMCON:102:1,2017-01-01T14:15:00Z,29.1870,-90.6093,2.27,24.89,1111122 
LUMCON,ioos:station:LUMCON:102:1,2017-01-01T14:30:00Z,29.1870,-90.6093,2.26,24.87,1111122 
LUMCON,ioos:station:LUMCON:102:1,2017-01-01T14:45:00Z,29.1870,-90.6093,2.26,24.78,1111122 
LUMCON,ioos:station:LUMCON:102:1,2017-01-01T15:00:00Z,29.1870,-90.6093,2.25,24.67,1111122 
LUMCON,ioos:station:LUMCON:102:1,2017-01-01T15:15:00Z,29.1870,-90.6093,2.25,24.61,1111122 
LUMCON,ioos:station:LUMCON:102:1,2017-01-01T15:30:00Z,29.1870,-90.6093,2.25,24.54,1111122 
LUMCON,ioos:station:LUMCON:102:1,2017-01-01T15:45:00Z,29.1870,-90.6093,2.25,24.51,1111122 
LUMCON,ioos:station:LUMCON:102:1,2017-01-01T16:00:00Z,29.1870,-90.6093,2.26,24.49,1111122 
LUMCON,ioos:station:LUMCON:102:1,2017-01-01T16:15:00Z,29.1870,-90.6093,2.27,24.47,1111122 
LUMCON,ioos:station:LUMCON:102:1,2017-01-01T16:30:00Z,29.1870,-90.6093,2.28,24.49,1111122 
LUMCON,ioos:station:LUMCON:102:1,2017-01-01T16:45:00Z,29.1870,-90.6093,2.29,24.48,1111122 
LUMCON,ioos:station:LUMCON:102:1,2017-01-01T17:00:00Z,29.1870,-90.6093,2.31,24.48,1111122 
LUMCON,ioos:station:LUMCON:102:1,2017-01-01T17:15:00Z,29.1870,-90.6093,2.32,24.44,1111122 
LUMCON,ioos:station:LUMCON:102:1,2017-01-01T17:30:00Z,29.1870,-90.6093,2.33,24.49,1111122 
LUMCON,ioos:station:LUMCON:102:1,2017-01-01T17:45:00Z,29.1870,-90.6093,2.34,24.47,1111122 
LUMCON,ioos:station:LUMCON:102:1,2017-01-01T18:00:00Z,29.1870,-90.6093,2.35,24.46,1111122 
LUMCON,ioos:station:LUMCON:102:1,2017-01-01T18:15:00Z,29.1870,-90.6093,2.37,24.44,1111122 
LUMCON,ioos:station:LUMCON:102:1,2017-01-01T18:30:00Z,29.1870,-90.6093,2.37,24.42,1111122 
LUMCON,ioos:station:LUMCON:102:1,2017-01-01T18:45:00Z,29.1870,-90.6093,2.39,24.39,1111122 
LUMCON,ioos:station:LUMCON:102:1,2017-01-01T19:00:00Z,29.1870,-90.6093,2.41,24.48,1111122 
LUMCON,ioos:station:LUMCON:102:1,2017-01-01T19:15:00Z,29.1870,-90.6093,2.43,24.5,1111122 
LUMCON,ioos:station:LUMCON:102:1,2017-01-01T19:30:00Z,29.1870,-90.6093,2.44,24.75,1111122 
LUMCON,ioos:station:LUMCON:102:1,2017-01-01T19:45:00Z,29.1870,-90.6093,2.48,24.81,1111122 
LUMCON,ioos:station:LUMCON:102:1,2017-01-01T20:00:00Z,29.1870,-90.6093,2.49,24.8,1111122 
LUMCON,ioos:station:LUMCON:102:1,2017-01-01T20:15:00Z,29.1870,-90.6093,2.51,24.97,1111122 
LUMCON,ioos:station:LUMCON:102:1,2017-01-01T20:30:00Z,29.1870,-90.6093,2.52,24.91,1111122 
LUMCON,ioos:station:LUMCON:102:1,2017-01-01T20:45:00Z,29.1870,-90.6093,2.53,24.73,1111122 
LUMCON,ioos:station:LUMCON:102:1,2017-01-01T21:00:00Z,29.1870,-90.6093,2.56,25.11,1111122 
LUMCON,ioos:station:LUMCON:102:1,2017-01-01T21:15:00Z,29.1870,-90.6093,2.56,25.33,1111122 
LUMCON,ioos:station:LUMCON:102:1,2017-01-01T21:30:00Z,29.1870,-90.6093,2.56,25.41,1111122 
LUMCON,ioos:station:LUMCON:102:1,2017-01-01T21:45:00Z,29.1870,-90.6093,2.58,25.64,1111122 
LUMCON,ioos:station:LUMCON:102:1,2017-01-01T22:00:00Z,29.1870,-90.6093,2.59,25.78,1111122 
LUMCON,ioos:station:LUMCON:102:1,2017-01-01T22:15:00Z,29.1870,-90.6093,2.61,25.93,1111122 
LUMCON,ioos:station:LUMCON:102:1,2017-01-01T22:30:00Z,29.1870,-90.6093,2.6,25.98,1111122 
LUMCON,ioos:station:LUMCON:102:1,2017-01-01T22:45:00Z,29.1870,-90.6093,2.59,26.05,1111122 
LUMCON,ioos:station:LUMCON:102:1,2017-01-01T23:00:00Z,29.1870,-90.6093,2.61,26.08,1111122 
LUMCON,ioos:station:LUMCON:102:1,2017-01-01T23:15:00Z,29.1870,-90.6093,2.63,26.29,1111122 
LUMCON,ioos:station:LUMCON:102:1,2017-01-01T23:30:00Z,29.1870,-90.6093,2.64,26.27,1111122 
LUMCON,ioos:station:LUMCON:102:1,2017-01-01T23:45:00Z,29.1870,-90.6093,2.65,26.36,1111122 
LUMCON,ioos:station:LUMCON:102:1,2017-01-02T00:00:00Z,29.1870,-90.6093,2.66,26.58,1111122 
LUMCON,ioos:station:LUMCON:102:1,2017-01-02T00:15:00Z,29.1870,-90.6093,2.64,26.56,1111122 
LUMCON,ioos:station:LUMCON:102:1,2017-01-02T00:30:00Z,29.1870,-90.6093,2.67,26.78,1111122 
LUMCON,ioos:station:LUMCON:102:1,2017-01-02T00:45:00Z,29.1870,-90.6093,2.66,27.02,1111122 
LUMCON,ioos:station:LUMCON:102:1,2017-01-02T01:00:00Z,29.1870,-90.6093,2.68,27.61,1111122 
LUMCON,ioos:station:LUMCON:102:1,2017-01-02T01:15:00Z,29.1870,-90.6093,2.67,27.93,1111122 
LUMCON,ioos:station:LUMCON:102:1,2017-01-02T01:30:00Z,29.1870,-90.6093,2.65,28.02,1111122 
LUMCON,ioos:station:LUMCON:102:1,2017-01-02T01:45:00Z,29.1870,-90.6093,2.64,28.13,1111122 
LUMCON,ioos:station:LUMCON:102:1,2017-01-02T02:00:00Z,29.1870,-90.6093,2.67,28.23,1111122 
LUMCON,ioos:station:LUMCON:102:1,2017-01-02T02:15:00Z,29.1870,-90.6093,2.66,28.25,1111122 
LUMCON,ioos:station:LUMCON:102:1,2017-01-02T02:30:00Z,29.1870,-90.6093,2.69,28.29,1111122 
LUMCON,ioos:station:LUMCON:102:1,2017-01-02T02:45:00Z,29.1870,-90.6093,2.7,28.33,1111122 
LUMCON,ioos:station:LUMCON:102:1,2017-01-02T03:00:00Z,29.1870,-90.6093,2.73,28.39,1111122 
LUMCON,ioos:station:LUMCON:102:1,2017-01-02T03:15:00Z,29.1870,-90.6093,2.73,28.59,1111122 
LUMCON,ioos:station:LUMCON:102:1,2017-01-02T03:30:00Z,29.1870,-90.6093,2.74,28.86,1111122 
LUMCON,ioos:station:LUMCON:102:1,2017-01-02T03:45:00Z,29.1870,-90.6093,2.75,28.98,1111122 
LUMCON,ioos:station:LUMCON:102:1,2017-01-02T04:00:00Z,29.1870,-90.6093,2.75,28.9,1111122 
LUMCON,ioos:station:LUMCON:102:1,2017-01-02T04:15:00Z,29.1870,-90.6093,2.74,28.83,1111122 
LUMCON,ioos:station:LUMCON:102:1,2017-01-02T04:30:00Z,29.1870,-90.6093,2.76,28.6,1111122 
LUMCON,ioos:station:LUMCON:102:1,2017-01-02T04:45:00Z,29.1870,-90.6093,2.74,28.23,1111122 
LUMCON,ioos:station:LUMCON:102:1,2017-01-02T05:00:00Z,29.1870,-90.6093,2.72,28.42,1111122 
LUMCON,ioos:station:LUMCON:102:1,2017-01-02T05:15:00Z,29.1870,-90.6093,2.74,28.66,1111122 
LUMCON,ioos:station:LUMCON:102:1,2017-01-02T05:30:00Z,29.1870,-90.6093,2.69,28.58,1111122 
LUMCON,ioos:station:LUMCON:102:1,2017-01-02T05:45:00Z,29.1870,-90.6093,2.67,28.42,1111122 
LUMCON,ioos:station:LUMCON:102:1,2017-01-02T06:00:00Z,29.1870,-90.6093,2.67,28.34,1111122 
LUMCON,ioos:station:LUMCON:102:1,2017-01-02T06:15:00Z,29.1870,-90.6093,2.68,27.9,1111122 
LUMCON,ioos:station:LUMCON:102:1,2017-01-02T06:30:00Z,29.1870,-90.6093,2.67,27.86,1111122 
LUMCON,ioos:station:LUMCON:102:1,2017-01-02T06:45:00Z,29.1870,-90.6093,2.66,28.0,1111122 
LUMCON,ioos:station:LUMCON:102:1,2017-01-02T07:00:00Z,29.1870,-90.6093,2.66,27.77,1111122 
LUMCON,ioos:station:LUMCON:102:1,2017-01-02T07:15:00Z,29.1870,-90.6093,2.66,27.67,1111122 
LUMCON,ioos:station:LUMCON:102:1,2017-01-02T07:30:00Z,29.1870,-90.6093,2.64,27.49,1111122 
LUMCON,ioos:station:LUMCON:102:1,2017-01-02T07:45:00Z,29.1870,-90.6093,2.63,27.28,1111122 
LUMCON,ioos:station:LUMCON:102:1,2017-01-02T08:00:00Z,29.1870,-90.6093,2.63,27.11,1111122 
LUMCON,ioos:station:LUMCON:102:1,2017-01-02T08:15:00Z,29.1870,-90.6093,2.62,26.86,1111122 
LUMCON,ioos:station:LUMCON:102:1,2017-01-02T08:30:00Z,29.1870,-90.6093,2.62,26.68,1111122 
LUMCON,ioos:station:LUMCON:102:1,2017-01-02T08:45:00Z,29.1870,-90.6093,2.59,26.53,1111122 
LUMCON,ioos:station:LUMCON:102:1,2017-01-02T09:00:00Z,29.1870,-90.6093,2.61,26.16,1111122 
LUMCON,ioos:station:LUMCON:102:1,2017-01-02T09:15:00Z,29.1870,-90.6093,2.59,25.9,1111122 
LUMCON,ioos:station:LUMCON:102:1,2017-01-02T09:30:00Z,29.1870,-90.6093,2.57,25.73,1111122 
LUMCON,ioos:station:LUMCON:102:1,2017-01-02T09:45:00Z,29.1870,-90.6093,2.54,25.31,1111122 
LUMCON,ioos:station:LUMCON:102:1,2017-01-02T10:00:00Z,29.1870,-90.6093,2.52,25.21,1111122 
LUMCON,ioos:station:LUMCON:102:1,2017-01-02T10:15:00Z,29.1870,-90.6093,2.51,25.22,1111122 
LUMCON,ioos:station:LUMCON:102:1,2017-01-02T10:30:00Z,29.1870,-90.6093,2.5,25.05,1111122 
LUMCON,ioos:station:LUMCON:102:1,2017-01-02T10:45:00Z,29.1870,-90.6093,2.48,24.84,1111122 
LUMCON,ioos:station:LUMCON:102:1,2017-01-02T11:00:00Z,29.1870,-90.6093,2.47,24.58,1111122 
LUMCON,ioos:station:LUMCON:102:1,2017-01-02T11:15:00Z,29.1870,-90.6093,2.46,24.23,1111122 
LUMCON,ioos:station:LUMCON:102:1,2017-01-02T11:30:00Z,29.1870,-90.6093,2.45,23.88,1111122 
LUMCON,ioos:station:LUMCON:102:1,2017-01-02T11:45:00Z,29.1870,-90.6093,2.43,23.58,1111122 
LUMCON,ioos:station:LUMCON:102:1,2017-01-02T12:00:00Z,29.1870,-90.6093,2.43,23.25,1111122 
LUMCON,ioos:station:LUMCON:102:1,2017-01-02T12:15:00Z,29.1870,-90.6093,2.41,22.93,1111122 
LUMCON,ioos:station:LUMCON:102:1,2017-01-02T12:30:00Z,29.1870,-90.6093,2.4,22.67,1111122 
LUMCON,ioos:station:LUMCON:102:1,2017-01-02T12:45:00Z,29.1870,-90.6093,2.39,22.5,1111122 
LUMCON,ioos:station:LUMCON:102:1,2017-01-02T13:00:00Z,29.1870,-90.6093,2.38,22.31,1111122 
LUMCON,ioos:station:LUMCON:102:1,2017-01-02T13:15:00Z,29.1870,-90.6093,2.38,22.22,1111122 
LUMCON,ioos:station:LUMCON:102:1,2017-01-02T13:30:00Z,29.1870,-90.6093,2.38,22.11,1111122 
LUMCON,ioos:station:LUMCON:102:1,2017-01-02T13:45:00Z,29.1870,-90.6093,2.36,22.06,1111122 
LUMCON,ioos:station:LUMCON:102:1,2017-01-02T14:00:00Z,29.1870,-90.6093,2.36,21.98,1111122 
LUMCON,ioos:station:LUMCON:102:1,2017-01-02T14:15:00Z,29.1870,-90.6093,2.35,21.9,1111122 
LUMCON,ioos:station:LUMCON:102:1,2017-01-02T14:30:00Z,29.1870,-90.6093,2.37,21.82,1111122 
LUMCON,ioos:station:LUMCON:102:1,2017-01-02T14:45:00Z,29.1870,-90.6093,2.36,21.73,1111122 
LUMCON,ioos:station:LUMCON:102:1,2017-01-02T15:00:00Z,29.1870,-90.6093,2.35,21.7,1111122 
LUMCON,ioos:station:LUMCON:102:1,2017-01-02T15:15:00Z,29.1870,-90.6093,2.35,21.67,1111122 
LUMCON,ioos:station:LUMCON:102:1,2017-01-02T15:30:00Z,29.1870,-90.6093,2.39,21.62,1111122 
LUMCON,ioos:station:LUMCON:102:1,2017-01-02T15:45:00Z,29.1870,-90.6093,2.38,21.64,1111122 
LUMCON,ioos:station:LUMCON:102:1,2017-01-02T16:00:00Z,29.1870,-90.6093,2.38,21.65,1111122 
LUMCON,ioos:station:LUMCON:102:1,2017-01-02T16:15:00Z,29.1870,-90.6093,2.38,21.64,1111122 
LUMCON,ioos:station:LUMCON:102:1,2017-01-02T16:30:00Z,29.1870,-90.6093,2.39,21.63,1111122 
LUMCON,ioos:station:LUMCON:102:1,2017-01-02T16:45:00Z,29.1870,-90.6093,2.39,21.66,1111122 
LUMCON,ioos:station:LUMCON:102:1,2017-01-02T17:00:00Z,29.1870,-90.6093,2.4,22.24,1111122 
LUMCON,ioos:station:LUMCON:102:1,2017-01-02T17:15:00Z,29.1870,-90.6093,2.4,22.32,1111122 
LUMCON,ioos:station:LUMCON:102:1,2017-01-02T17:30:00Z,29.1870,-90.6093,2.41,22.04,1111122 
LUMCON,ioos:station:LUMCON:102:1,2017-01-02T17:45:00Z,29.1870,-90.6093,2.42,21.99,1111122 
LUMCON,ioos:station:LUMCON:102:1,2017-01-02T18:00:00Z,29.1870,-90.6093,2.44,22.06,1111122 
LUMCON,ioos:station:LUMCON:102:1,2017-01-02T18:15:00Z,29.1870,-90.6093,2.45,22.27,1111122 
LUMCON,ioos:station:LUMCON:102:1,2017-01-02T18:30:00Z,29.1870,-90.6093,2.47,22.74,1111122 
LUMCON,ioos:station:LUMCON:102:1,2017-01-02T18:45:00Z,29.1870,-90.6093,2.49,22.8,1111122 
LUMCON,ioos:station:LUMCON:102:1,2017-01-02T19:00:00Z,29.1870,-90.6093,2.51,23.02,1111122 
LUMCON,ioos:station:LUMCON:102:1,2017-01-02T19:15:00Z,29.1870,-90.6093,2.52,23.02,1111122 
LUMCON,ioos:station:LUMCON:102:1,2017-01-02T19:30:00Z,29.1870,-90.6093,2.52,23.03,1111122 
LUMCON,ioos:station:LUMCON:102:1,2017-01-02T19:45:00Z,29.1870,-90.6093,2.53,23.07,1111122 
LUMCON,ioos:station:LUMCON:102:1,2017-01-02T20:00:00Z,29.1870,-90.6093,2.53,23.23,1111122 
LUMCON,ioos:station:LUMCON:102:1,2017-01-02T20:15:00Z,29.1870,-90.6093,2.53,23.36,1111122 
LUMCON,ioos:station:LUMCON:102:1,2017-01-02T20:30:00Z,29.1870,-90.6093,2.54,23.44,1111122 
LUMCON,ioos:station:LUMCON:102:1,2017-01-02T20:45:00Z,29.1870,-90.6093,2.54,23.51,1111122 
LUMCON,ioos:station:LUMCON:102:1,2017-01-02T21:00:00Z,29.1870,-90.6093,2.55,23.65,1111122 
LUMCON,ioos:station:LUMCON:102:1,2017-01-02T21:15:00Z,29.1870,-90.6093,2.57,23.94,1111122 
LUMCON,ioos:station:LUMCON:102:1,2017-01-02T21:30:00Z,29.1870,-90.6093,2.58,24.12,1111122 
LUMCON,ioos:station:LUMCON:102:1,2017-01-02T21:45:00Z,29.1870,-90.6093,2.57,24.36,1111122 
LUMCON,ioos:station:LUMCON:102:1,2017-01-02T22:00:00Z,29.1870,-90.6093,2.59,24.3,1111122 
LUMCON,ioos:station:LUMCON:102:1,2017-01-02T22:15:00Z,29.1870,-90.6093,2.59,24.24,1111122 
LUMCON,ioos:station:LUMCON:102:1,2017-01-02T22:30:00Z,29.1870,-90.6093,2.6,24.26,1111122 
LUMCON,ioos:station:LUMCON:102:1,2017-01-02T22:45:00Z,29.1870,-90.6093,2.58,24.17,1111122 
LUMCON,ioos:station:LUMCON:102:1,2017-01-02T23:00:00Z,29.1870,-90.6093,2.57,24.12,1111122 
LUMCON,ioos:station:LUMCON:102:1,2017-01-02T23:15:00Z,29.1870,-90.6093,2.58,24.24,1111122 
LUMCON,ioos:station:LUMCON:102:1,2017-01-02T23:30:00Z,29.1870,-90.6093,2.6,24.38,1111122 
LUMCON,ioos:station:LUMCON:102:1,2017-01-02T23:45:00Z,29.1870,-90.6093,2.62,24.67,1111122 
LUMCON,ioos:station:LUMCON:102:1,2017-01-03T00:00:00Z,29.1870,-90.6093,2.57,24.73,1111122 
LUMCON,ioos:station:LUMCON:102:1,2017-01-03T00:15:00Z,29.1870,-90.6093,2.61,24.81,1111122 
LUMCON,ioos:station:LUMCON:102:1,2017-01-03T00:30:00Z,29.1870,-90.6093,2.59,24.83,1111122 
LUMCON,ioos:station:LUMCON:102:1,2017-01-03T00:45:00Z,29.1870,-90.6093,2.58,24.83,1111122 
LUMCON,ioos:station:LUMCON:102:1,2017-01-03T01:00:00Z,29.1870,-90.6093,2.53,24.83,1111122 
LUMCON,ioos:station:LUMCON:102:1,2017-01-03T01:15:00Z,29.1870,-90.6093,2.54,24.73,1111122 
LUMCON,ioos:station:LUMCON:102:1,2017-01-03T01:30:00Z,29.1870,-90.6093,2.55,24.73,1111122 
LUMCON,ioos:station:LUMCON:102:1,2017-01-03T01:45:00Z,29.1870,-90.6093,2.55,24.7,1111122 
LUMCON,ioos:station:LUMCON:102:1,2017-01-03T02:00:00Z,29.1870,-90.6093,2.55,24.58,1111122 
LUMCON,ioos:station:LUMCON:102:1,2017-01-03T02:15:00Z,29.1870,-90.6093,2.54,24.4,1111122 
LUMCON,ioos:station:LUMCON:102:1,2017-01-03T02:30:00Z,29.1870,-90.6093,2.54,24.4,1111122 
LUMCON,ioos:station:LUMCON:102:1,2017-01-03T02:45:00Z,29.1870,-90.6093,2.56,24.52,1111122 
LUMCON,ioos:station:LUMCON:102:1,2017-01-03T03:00:00Z,29.1870,-90.6093,2.58,24.5,1111122 
LUMCON,ioos:station:LUMCON:102:1,2017-01-03T03:15:00Z,29.1870,-90.6093,2.6,24.3,1111122 
LUMCON,ioos:station:LUMCON:102:1,2017-01-03T03:30:00Z,29.1870,-90.6093,2.61,24.63,1111122 
LUMCON,ioos:station:LUMCON:102:1,2017-01-03T03:45:00Z,29.1870,-90.6093,2.6,24.91,1111122 
LUMCON,ioos:station:LUMCON:102:1,2017-01-03T04:00:00Z,29.1870,-90.6093,2.59,25.06,1111122 
LUMCON,ioos:station:LUMCON:102:1,2017-01-03T04:15:00Z,29.1870,-90.6093,2.6,25.4,1111122 
LUMCON,ioos:station:LUMCON:102:1,2017-01-03T04:30:00Z,29.1870,-90.6093,2.59,25.53,1111122 
LUMCON,ioos:station:LUMCON:102:1,2017-01-03T04:45:00Z,29.1870,-90.6093,2.6,25.52,1111122 
LUMCON,ioos:station:LUMCON:102:1,2017-01-03T05:00:00Z,29.1870,-90.6093,2.59,25.5,1111122 
LUMCON,ioos:station:LUMCON:102:1,2017-01-03T05:15:00Z,29.1870,-90.6093,2.56,25.52,1111122 
LUMCON,ioos:station:LUMCON:102:1,2017-01-03T05:30:00Z,29.1870,-90.6093,2.55,25.82,1111122 
LUMCON,ioos:station:LUMCON:102:1,2017-01-03T05:45:00Z,29.1870,-90.6093,2.56,26.14,1111122 
LUMCON,ioos:station:LUMCON:102:1,2017-01-03T06:00:00Z,29.1870,-90.6093,2.51,26.22,1111122 
LUMCON,ioos:station:LUMCON:102:1,2017-01-03T06:15:00Z,29.1870,-90.6093,2.49,26.28,1111122 
LUMCON,ioos:station:LUMCON:102:1,2017-01-03T06:30:00Z,29.1870,-90.6093,2.49,26.21,1111122 
LUMCON,ioos:station:LUMCON:102:1,2017-01-03T06:45:00Z,29.1870,-90.6093,2.46,26.05,1111122 
LUMCON,ioos:station:LUMCON:102:1,2017-01-03T07:00:00Z,29.1870,-90.6093,2.48,25.94,1111122 
LUMCON,ioos:station:LUMCON:102:1,2017-01-03T07:15:00Z,29.1870,-90.6093,2.47,25.63,1111122 
LUMCON,ioos:station:LUMCON:102:1,2017-01-03T07:30:00Z,29.1870,-90.6093,2.47,25.68,1111122 
LUMCON,ioos:station:LUMCON:102:1,2017-01-03T07:45:00Z,29.1870,-90.6093,2.46,25.64,1111122 
LUMCON,ioos:station:LUMCON:102:1,2017-01-03T08:00:00Z,29.1870,-90.6093,2.44,25.62,1111122 
LUMCON,ioos:station:LUMCON:102:1,2017-01-03T08:15:00Z,29.1870,-90.6093,2.44,25.89,1111122 
LUMCON,ioos:station:LUMCON:102:1,2017-01-03T08:30:00Z,29.1870,-90.6093,2.44,26.07,1111122 
LUMCON,ioos:station:LUMCON:102:1,2017-01-03T08:45:00Z,29.1870,-90.6093,2.45,26.37,1111122 
LUMCON,ioos:station:LUMCON:102:1,2017-01-03T09:00:00Z,29.1870,-90.6093,2.43,26.38,1111122 
LUMCON,ioos:station:LUMCON:102:1,2017-01-03T09:15:00Z,29.1870,-90.6093,2.42,26.46,1111122 
LUMCON,ioos:station:LUMCON:102:1,2017-01-03T09:30:00Z,29.1870,-90.6093,2.4,26.44,1111122 
LUMCON,ioos:station:LUMCON:102:1,2017-01-03T09:45:00Z,29.1870,-90.6093,2.39,26.6,1111122 
LUMCON,ioos:station:LUMCON:102:1,2017-01-03T10:00:00Z,29.1870,-90.6093,2.37,26.93,1111122 
LUMCON,ioos:station:LUMCON:102:1,2017-01-03T10:15:00Z,29.1870,-90.6093,2.36,27.14,1111122 
LUMCON,ioos:station:LUMCON:102:1,2017-01-03T10:30:00Z,29.1870,-90.6093,2.35,27.17,1111122 
LUMCON,ioos:station:LUMCON:102:1,2017-01-03T10:45:00Z,29.1870,-90.6093,2.34,26.69,1111122 
LUMCON,ioos:station:LUMCON:102:1,2017-01-03T11:00:00Z,29.1870,-90.6093,2.31,25.59,1111122 
LUMCON,ioos:station:LUMCON:102:1,2017-01-03T11:15:00Z,29.1870,-90.6093,2.31,25.46,1111122 
LUMCON,ioos:station:LUMCON:102:1,2017-01-03T11:30:00Z,29.1870,-90.6093,2.3,24.6,1111122 
LUMCON,ioos:station:LUMCON:102:1,2017-01-03T11:45:00Z,29.1870,-90.6093,2.29,24.66,1111122 
LUMCON,ioos:station:LUMCON:102:1,2017-01-03T12:00:00Z,29.1870,-90.6093,2.3,26.07,1111122 
LUMCON,ioos:station:LUMCON:102:1,2017-01-03T12:15:00Z,29.1870,-90.6093,2.3,26.36,1111122 
LUMCON,ioos:station:LUMCON:102:1,2017-01-03T12:30:00Z,29.1870,-90.6093,2.3,26.33,1111122 
LUMCON,ioos:station:LUMCON:102:1,2017-01-03T12:45:00Z,29.1870,-90.6093,2.27,26.4,1111122 
LUMCON,ioos:station:LUMCON:102:1,2017-01-03T13:00:00Z,29.1870,-90.6093,2.25,26.37,1111122 
LUMCON,ioos:station:LUMCON:102:1,2017-01-03T13:15:00Z,29.1870,-90.6093,2.25,26.33,1111122 
LUMCON,ioos:station:LUMCON:102:1,2017-01-03T13:30:00Z,29.1870,-90.6093,2.23,26.28,1111122 
LUMCON,ioos:station:LUMCON:102:1,2017-01-03T13:45:00Z,29.1870,-90.6093,2.23,26.27,1111122 
LUMCON,ioos:station:LUMCON:102:1,2017-01-03T14:00:00Z,29.1870,-90.6093,2.22,26.24,1111122 
LUMCON,ioos:station:LUMCON:102:1,2017-01-03T14:15:00Z,29.1870,-90.6093,2.25,26.22,1111122 
LUMCON,ioos:station:LUMCON:102:1,2017-01-03T14:30:00Z,29.1870,-90.6093,2.25,26.24,1111122 
LUMCON,ioos:station:LUMCON:102:1,2017-01-03T14:45:00Z,29.1870,-90.6093,2.25,26.24,1111122 
LUMCON,ioos:station:LUMCON:102:1,2017-01-03T15:00:00Z,29.1870,-90.6093,2.25,26.25,1111122 
LUMCON,ioos:station:LUMCON:102:1,2017-01-03T15:15:00Z,29.1870,-90.6093,2.25,26.25,1111122 
LUMCON,ioos:station:LUMCON:102:1,2017-01-03T15:30:00Z,29.1870,-90.6093,2.22,26.2,1111122 
LUMCON,ioos:station:LUMCON:102:1,2017-01-03T15:45:00Z,29.1870,-90.6093,2.23,26.22,1111122 
LUMCON,ioos:station:LUMCON:102:1,2017-01-03T16:00:00Z,29.1870,-90.6093,2.24,26.2,1111122 
LUMCON,ioos:station:LUMCON:102:1,2017-01-03T16:15:00Z,29.1870,-90.6093,2.25,26.17,1111122 
LUMCON,ioos:station:LUMCON:102:1,2017-01-03T16:30:00Z,29.1870,-90.6093,2.24,26.15,1111122 
LUMCON,ioos:station:LUMCON:102:1,2017-01-03T16:45:00Z,29.1870,-90.6093,2.26,25.94,1111122 
LUMCON,ioos:station:LUMCON:102:1,2017-01-03T17:00:00Z,29.1870,-90.6093,2.23,25.84,1111122 
LUMCON,ioos:station:LUMCON:102:1,2017-01-03T17:15:00Z,29.1870,-90.6093,2.25,25.77,1111122 
LUMCON,ioos:station:LUMCON:102:1,2017-01-03T17:30:00Z,29.1870,-90.6093,2.24,25.81,1111122 